Simultaneous Nadir Overpasses (SNOs) Predictions

Prediction of SNOs near US between AQUA and NPP Satellite Orbit:

Table of predicted SNOs near US for the next 10.0 days since TLE Epoch: 8/26/2016
Index Date (AQUA) Time (AQUA) AQUA Lat,Lon Date (NPP) Time (NPP) NPP Lat,Lon Distance(km) Time Diff (sec)
1 08/28/2016 07:18:20 49.93, -75.98 08/28/2016 07:20:38 50.36, -78.10 158.41 138
2 08/28/2016 08:57:13 49.94,-100.70 08/28/2016 09:02:06 50.46,-103.42 202.85 293
3 08/30/2016 18:16:30 49.96, -80.16 08/30/2016 18:10:53 49.67, -81.64 110.73 337
4 08/30/2016 19:55:23 49.95,-104.88 08/30/2016 19:52:21 49.56,-106.96 155.95 182
5 08/30/2016 21:30:34 36.71,-124.99 08/30/2016 21:30:01 36.25,-127.49 229.23 33
6 09/02/2016 09:22:49 24.66,-113.14 09/02/2016 09:15:46 24.75,-113.47 34.08 423
7 09/05/2016 06:29:54 46.38, -65.04 09/05/2016 06:30:50 46.75, -66.93 150.62 56
8 09/05/2016 08:07:47 49.94, -88.35 09/05/2016 08:11:16 50.43, -90.74 178.69 209
9 09/05/2016 09:46:41 49.89,-113.09 09/05/2016 09:52:45 50.48,-116.09 223.44 364




NCC Satellite Simultaneous Nadir Overpasses (SNOs) Prediction Service
